sat.trackr.live / text

‹ back to catalog

STARLINK-34186

NORAD 64145 · 2025-111Y

PAYLOAD ACTIVE UNKNOWN

§ Identity

Operator
Country
US
Launch date
2025-05-24
Launch site
AFETR
Launch vehicle
Mass (kg)
RCS (m²)

Purposes: comms

External: N2YO · Heavens-Above · Gunter

§ Orbital elements

Epoch: 2026-05-25T00:10:16.913280Z

Period
94.26 min
Inclination
43.0036°
Eccentricity
0.0001457
Mean motion
15.27628049 rev/d
Perigee alt
481.9 km
Apogee alt
483.9 km
Semi-major
6,861.0 km
B*
1.0913e-3
RAAN
6.9973°
Arg perigee
262.2979°
Mean anomaly
97.7707°
Rev number
5,713

§ Raw data

STARLINK-341861 64145U 25111Y   26145.00714020  .00029933  00000+0  10913-2 0  99932 64145  43.0036   6.9973 0001457 262.2979  97.7707 15.27628049 57133

JSON: /api/v1/satellites/64145 · /tle

For live sub-satellite position, see the globe view (requires WebGL).

§ Visibility from observer

Set your observer location to see the next 7 days of passes ≥ 10°. The values pass through the URL so the page stays shareable.

No JS? Fill the form by hand. The geolocation button needs JavaScript.